Monticello, AR

10:01 PM CDT on September 27, 2016 (GMT -0500)
Monticello Municipal-Ellis

Weather History for KLLQ - March, 2014

Change the Weather History Date:

Wednesday, March 26, 2014

  Actual Average Record
Temperature  
Mean Temperature 46 °F -  
Max Temperature 61 °F 64 °F 84 °F (2011)
Min Temperature 30 °F 41 °F 28 °F (1982)
Degree Days  
Heating Degree Days 20    
Moisture  
Dew Point 26 °F    
Average Humidity 46    
Maximum Humidity 82    
Minimum Humidity 25    
Precipitation  
Precipitation 0.00 in - - ()
Sea Level Pressure  
Sea Level Pressure 30.24 in    
Wind  
Wind Speed 4 mph (SE)    
Max Wind Speed 14 mph    
Max Gust Speed 22 mph    
Visibility 10 miles    
Events Rain    
Averages and records for this station are not official NWS values.
T = Trace of Precipitation, MM = Missing Value Source: NWS Daily Summary

Daily Weather History Graph

Daily Weather History Graph

Search for Another Location

Airport or City:

Trip Planner

Search our weather history database for the weather conditions in past years. The results will help you decide how hot, cold, wet, or windy it might be!

Date:

Astronomy

Mar. 26, 2014 Rise Set
Actual Time 7:02 AM CDT 7:23 PM CDT
Civil Twilight 6:37 AM CDT 7:48 PM CDT
Nautical Twilight 6:08 AM CDT 8:17 PM CDT
Astronomical Twilight 5:38 AM CDT 8:46 PM CDT
Moon 3:59 AM CDT (3/26) 3:13 PM CDT (3/26)
Length of Visible Light 13h 10m
Length of Day
12h 20m
Waning Crescent, 21% of the Moon is Illuminated
Mar 26
Waning Crescent
Mar 30
New
Apr 7
First Quarter
Apr 15
Full
Apr 22
Last Quarter

Hourly Weather History & Observations

Time (CDT) Temp. Windchill Dew Point Humidity Pressure Visibility Wind Dir Wind Speed Gust Speed Precip Events Conditions
12:53 AM 35.1 °F - 28.0 °F 76% 30.30 in 10.0 mi Calm Calm - N/A   Clear
1:53 AM 36.0 °F - 26.1 °F 67% 30.30 in 10.0 mi Calm Calm - N/A   Clear
2:53 AM 36.0 °F 33.3 °F 27.0 °F 70% 30.30 in 10.0 mi NE 3.5 mph - N/A   Clear
3:53 AM 35.1 °F - 26.1 °F 70% 30.30 in 10.0 mi Calm Calm - 0.00 in   Clear
4:53 AM 30.9 °F 24.3 °F 26.1 °F 82% 30.28 in 10.0 mi ENE 6.9 mph - N/A   Clear
5:53 AM 34.0 °F - 25.0 °F 70% 30.29 in 10.0 mi Calm Calm - 0.00 in   Clear
6:53 AM 32.0 °F - 25.0 °F 75% 30.32 in 10.0 mi Calm Calm - N/A   Clear
7:53 AM 33.1 °F 28.7 °F 27.0 °F 78% 30.34 in 10.0 mi East 4.6 mph - N/A   Clear
8:53 AM 42.1 °F 39.2 °F 23.0 °F 47% 30.35 in 10.0 mi East 4.6 mph - N/A   Clear
9:53 AM 48.0 °F - 21.0 °F 34% 30.36 in 10.0 mi ESE 9.2 mph 16.1 mph N/A   Clear
10:53 AM 51.1 °F - 21.0 °F 31% 30.35 in 10.0 mi SE 13.8 mph 19.6 mph N/A   Clear
11:53 AM 53.1 °F - 21.0 °F 29% 30.33 in 10.0 mi Variable 4.6 mph 17.3 mph N/A   Clear
12:53 PM 55.0 °F - 23.0 °F 29% 30.29 in 10.0 mi SSE 10.4 mph - N/A   Clear
1:53 PM 57.9 °F - 24.1 °F 27% 30.24 in 10.0 mi ESE 12.7 mph 18.4 mph 0.00 in Rain Light Rain
2:53 PM 59.0 °F - 24.1 °F 26% 30.21 in 10.0 mi SE 9.2 mph 19.6 mph 0.00 in   Clear
3:53 PM 60.1 °F - 24.1 °F 25% 30.17 in 10.0 mi SSE 11.5 mph 21.9 mph N/A   Clear
4:53 PM 61.0 °F - 25.0 °F 25% 30.15 in 10.0 mi SE 5.8 mph 17.3 mph N/A   Mostly Cloudy
5:53 PM 59.0 °F - 24.1 °F 26% 30.14 in 10.0 mi South 6.9 mph - N/A   Mostly Cloudy
6:53 PM 57.9 °F - 26.1 °F 30% 30.14 in 10.0 mi SE 4.6 mph - N/A   Mostly Cloudy
7:53 PM 55.9 °F - 30.0 °F 37% 30.12 in 10.0 mi East 3.5 mph - N/A   Scattered Clouds
8:53 PM 55.0 °F - 30.0 °F 38% 30.12 in 10.0 mi Calm Calm - 0.00 in Rain Light Rain
9:53 PM 55.0 °F - 30.0 °F 38% 30.12 in 10.0 mi South 4.6 mph - 0.00 in   Overcast
10:53 PM 55.0 °F - 30.9 °F 40% 30.10 in 10.0 mi SSE 8.1 mph - 0.00 in   Overcast
11:53 PM 54.0 °F - 32.0 °F 43% 30.09 in 6.0 mi SSE 8.1 mph - 0.00 in Rain Light Rain